Langdon, ND

1:42 AM CST on February 10, 2016 (GMT -0600)
Langdon

Weather History for KD55 - December, 2012

Change the Weather History Date:

Sunday, December 9, 2012

  Actual Average Record
Temperature  
Mean Temperature -6 °F -  
Max Temperature 0 °F - - ()
Min Temperature -13 °F - - ()
Degree Days  
Heating Degree Days 72    
Moisture  
Dew Point -11 °F    
Average Humidity 79    
Maximum Humidity 85    
Minimum Humidity 71    
Precipitation  
Precipitation 0.00 in - - ()
Sea Level Pressure  
Sea Level Pressure 30.24 in    
Wind  
Wind Speed 12 mph (NNW)    
Max Wind Speed 18 mph    
Max Gust Speed 22 mph    
Visibility 9 miles    
Events      
T = Trace of Precipitation, MM = Missing Value Source: NWS Daily Summary

Daily Weather History Graph

Daily Weather History Graph

Search for Another Location

Airport or City:

Trip Planner

Search our weather history database for the weather conditions in past years. The results will help you decide how hot, cold, wet, or windy it might be!

Date:

Astronomy

Dec. 09, 2012 Rise Set
Actual Time 8:15 AM CST 4:37 PM CST
Civil Twilight 7:38 AM CST 5:14 PM CST
Nautical Twilight 6:58 AM CST 5:54 PM CST
Astronomical Twilight 6:19 AM CST 6:32 PM CST
Moon 3:33 AM CST (12/9) 1:58 PM CST (12/9)
Length of Visible Light 9h 35m
Length of Day
8h 22m
Waning Crescent, 18% of the Moon is Illuminated
Dec 9
Waning Crescent
Dec 13
New
Dec 19
First Quarter
Dec 28
Full
Jan 4
Last Quarter

Hourly Weather History & Observations

Time (CST) Temp. Windchill Dew Point Humidity Pressure Visibility Wind Dir Wind Speed Gust Speed Precip Events Conditions
12:15 AM -2.2 °F -22.9 °F -5.8 °F 85% 30.17 in 9.0 mi NNE 16.1 mph - N/A   Mostly Cloudy
12:35 AM -2.2 °F -22.2 °F -5.8 °F 85% 30.17 in 9.0 mi NNE 15.0 mph - N/A   Overcast
12:55 AM -2.2 °F -21.5 °F -5.8 °F 85% 30.18 in 7.0 mi NNE 13.8 mph - N/A   Overcast
1:15 AM -2.2 °F -21.5 °F -7.6 °F 78% 30.19 in 7.0 mi NNE 13.8 mph 18.4 mph N/A   Overcast
1:35 AM -2.2 °F -18.9 °F -7.6 °F 78% 30.20 in 5.0 mi NNE 10.4 mph - N/A   Overcast
1:55 AM -2.2 °F -21.5 °F -7.6 °F 78% 30.20 in 5.0 mi NNE 13.8 mph - N/A   Overcast
2:15 AM -2.2 °F -19.9 °F -7.6 °F 78% 30.21 in 10.0 mi NNE 11.5 mph - N/A   Mostly Cloudy
2:35 AM -2.2 °F -20.7 °F -7.6 °F 78% 30.22 in 10.0 mi NNE 12.7 mph - N/A   Scattered Clouds
2:55 AM -2.2 °F -18.9 °F -7.6 °F 78% 30.23 in 10.0 mi NNE 10.4 mph - N/A   Mostly Cloudy
3:15 AM -2.2 °F -18.9 °F -7.6 °F 78% 30.23 in 10.0 mi NNE 10.4 mph - N/A   Mostly Cloudy
3:35 AM -2.2 °F -19.9 °F -7.6 °F 78% 30.23 in 10.0 mi NNE 11.5 mph - N/A   Scattered Clouds
3:55 AM -2.2 °F -22.2 °F -5.8 °F 85% 30.23 in 10.0 mi NNE 15.0 mph - N/A   Mostly Cloudy
4:15 AM -0.4 °F -19.9 °F -4.0 °F 85% 30.23 in 10.0 mi NNE 15.0 mph - N/A   Overcast
4:35 AM -2.2 °F -21.5 °F -5.8 °F 85% 30.24 in 6.0 mi North 13.8 mph - N/A   Overcast
4:55 AM -2.2 °F -22.2 °F -5.8 °F 85% 30.25 in 10.0 mi North 15.0 mph - N/A   Overcast
5:15 AM -2.2 °F -22.9 °F -7.6 °F 78% 30.26 in 7.0 mi North 16.1 mph 21.9 mph N/A   Overcast
5:35 AM -2.2 °F -23.5 °F -5.8 °F 85% 30.27 in 7.0 mi North 17.3 mph 21.9 mph N/A   Overcast
6:15 AM -2.2 °F -22.2 °F -7.6 °F 78% 30.28 in 9.0 mi North 15.0 mph - N/A   Overcast
6:35 AM -4.0 °F -24.5 °F -7.6 °F 85% 30.28 in 9.0 mi North 15.0 mph - N/A   Overcast
6:55 AM -4.0 °F -26.4 °F -7.6 °F 85% 30.29 in 9.0 mi North 18.4 mph - N/A   Overcast
7:15 AM -4.0 °F -25.2 °F -9.4 °F 78% 30.29 in 7.0 mi North 16.1 mph - N/A   Overcast
7:35 AM -4.0 °F -25.8 °F -9.4 °F 78% 30.29 in 7.0 mi North 17.3 mph - N/A   Overcast
7:55 AM -5.8 °F -27.5 °F -9.4 °F 84% 30.30 in 7.0 mi North 16.1 mph - N/A   Overcast
8:15 AM -7.6 °F -28.3 °F -11.2 °F 84% 30.31 in 6.0 mi North 13.8 mph - N/A   Overcast
8:35 AM -7.6 °F -27.5 °F -11.2 °F 84% 30.33 in 5.0 mi North 12.7 mph - N/A   Overcast
8:55 AM -7.6 °F -28.3 °F -13.0 °F 77% 30.33 in 5.0 mi North 13.8 mph - N/A   Haze
9:15 AM -7.6 °F -28.3 °F -13.0 °F 77% 30.33 in 7.0 mi North 13.8 mph - N/A   Partly Cloudy
9:35 AM -7.6 °F -27.5 °F -11.2 °F 84% 30.32 in 7.0 mi North 12.7 mph - N/A   Clear
9:55 AM -7.6 °F -25.7 °F -11.2 °F 84% 30.33 in 6.0 mi North 10.4 mph - N/A   Haze
10:15 AM -7.6 °F -27.5 °F -11.2 °F 84% 30.33 in 10.0 mi North 12.7 mph - N/A   Clear
10:35 AM -7.6 °F -26.6 °F -11.2 °F 84% 30.33 in 10.0 mi North 11.5 mph - N/A   Mostly Cloudy
10:55 AM -4.0 °F -22.1 °F -9.4 °F 78% 30.33 in 5.0 mi NNE 11.5 mph 17.3 mph N/A   Overcast
11:15 AM -4.0 °F -21.2 °F -7.6 °F 85% 30.32 in 6.0 mi North 10.4 mph - N/A   Overcast
11:35 AM -2.2 °F -20.7 °F -7.6 °F 78% 30.32 in 10.0 mi North 12.7 mph - N/A   Overcast
11:55 AM -2.2 °F -18.9 °F -7.6 °F 78% 30.32 in 10.0 mi North 10.4 mph - N/A   Overcast
12:15 PM -2.2 °F -18.0 °F -7.6 °F 78% 30.31 in 10.0 mi North 9.2 mph - N/A   Mostly Cloudy
12:35 PM -2.2 °F -18.9 °F -7.6 °F 78% 30.31 in 10.0 mi North 10.4 mph - N/A   Partly Cloudy
12:55 PM -2.2 °F -19.9 °F -7.6 °F 78% 30.30 in 10.0 mi NNE 11.5 mph - N/A   Clear
1:15 PM -2.2 °F -18.0 °F -9.4 °F 71% 30.29 in 10.0 mi North 9.2 mph - N/A   Clear
1:35 PM -2.2 °F -19.9 °F -9.4 °F 71% 30.29 in 10.0 mi North 11.5 mph - N/A   Clear
1:55 PM -2.2 °F -15.6 °F -9.4 °F 71% 30.28 in 10.0 mi North 6.9 mph - N/A   Scattered Clouds
2:15 PM -2.2 °F -14.2 °F -9.4 °F 71% 30.28 in 10.0 mi North 5.8 mph - N/A   Scattered Clouds
2:35 PM -2.2 °F -14.2 °F -9.4 °F 71% 30.27 in 10.0 mi North 5.8 mph - N/A   Clear
2:55 PM -2.2 °F -12.5 °F -9.4 °F 71% 30.26 in 10.0 mi North 4.6 mph - N/A   Clear
3:15 PM -2.2 °F -10.4 °F -9.4 °F 71% 30.26 in 10.0 mi NNW 3.5 mph - N/A   Clear
3:35 PM -4.0 °F -14.6 °F -9.4 °F 78% 30.26 in 10.0 mi NW 4.6 mph - N/A   Clear
3:55 PM -5.8 °F -16.7 °F -11.2 °F 77% 30.26 in 10.0 mi WNW 4.6 mph - N/A   Scattered Clouds
4:15 PM -7.6 °F -20.6 °F -13.0 °F 77% 30.25 in 10.0 mi WNW 5.8 mph - N/A   Scattered Clouds
4:35 PM -9.4 °F -24.3 °F -14.8 °F 77% 30.25 in 10.0 mi WNW 6.9 mph - N/A   Clear
4:55 PM -11.2 °F -23.0 °F -14.8 °F 84% 30.24 in 10.0 mi WNW 4.6 mph - N/A   Clear
5:15 PM - - - N/A% 30.24 in 10.0 mi West 6.9 mph - N/A   Clear
5:35 PM -11.2 °F -23.0 °F -14.8 °F 84% 30.24 in 10.0 mi West 4.6 mph - N/A   Clear
5:55 PM -11.2 °F -23.0 °F -16.6 °F 77% 30.23 in 10.0 mi West 4.6 mph - N/A   Clear
6:15 PM -13.0 °F -25.1 °F -18.4 °F 77% 30.22 in 10.0 mi West 4.6 mph - N/A   Clear
6:35 PM -13.0 °F -27.0 °F -18.4 °F 77% 30.21 in 10.0 mi WSW 5.8 mph - N/A   Clear
6:55 PM -13.0 °F -27.0 °F -18.4 °F 77% 30.19 in 10.0 mi SW 5.8 mph - N/A   Clear
7:15 PM -13.0 °F -25.1 °F -18.4 °F 77% 30.17 in 10.0 mi SSW 4.6 mph - N/A   Clear
7:35 PM -13.0 °F -27.0 °F -18.4 °F 77% 30.17 in 10.0 mi SSW 5.8 mph - N/A   Clear
7:55 PM -11.2 °F -24.8 °F -16.6 °F 77% 30.16 in 10.0 mi SSW 5.8 mph - N/A   Clear
8:15 PM -13.0 °F -28.6 °F -18.4 °F 77% 30.15 in 10.0 mi SSW 6.9 mph - N/A   Clear
8:35 PM -11.2 °F -26.4 °F -16.6 °F 77% 30.14 in 10.0 mi SSW 6.9 mph - N/A   Clear
8:55 PM -11.2 °F -24.8 °F -16.6 °F 77% 30.13 in 10.0 mi SSW 5.8 mph - N/A   Clear
9:15 PM - - - N/A% 30.12 in 10.0 mi SSW 8.1 mph - N/A   Clear
9:35 PM -11.2 °F -29.0 °F -16.6 °F 77% 30.12 in 10.0 mi SSW 9.2 mph - N/A   Clear
10:15 PM -9.4 °F -27.9 °F -14.8 °F 77% 30.08 in 10.0 mi South 10.4 mph - N/A   Clear
10:55 PM -9.4 °F -26.8 °F -13.0 °F 84% 30.07 in 10.0 mi SSW 9.2 mph - N/A   Partly Cloudy
11:15 PM -9.4 °F -29.8 °F -13.0 °F 84% 30.06 in 10.0 mi SSW 12.7 mph - N/A   Mostly Cloudy
11:35 PM -9.4 °F -28.9 °F -13.0 °F 84% 30.05 in 10.0 mi SSW 11.5 mph - N/A   Scattered Clouds
11:55 PM -9.4 °F -27.9 °F -13.0 °F 84% 30.04 in 10.0 mi South 10.4 mph - N/A   Overcast